| time (UTC) | temp F | wind direction | speed MPH | gust MPH | rain 1hr in | rain 24hr in | rain mn in | humidity % | barometer mb |
| 20260503034607 | 48 | 196 | 1.0 | 4.0 | 0.06 | 0.34 | 0.34 | 94 | 1009.8 |
| 20260503033112 | 48 | 196 | 0.0 | 1.0 | 0.06 | 0.33 | 0.33 | 94 | 1009.6 |
| 20260503031555 | 48 | 196 | 0.0 | 0.0 | 0.06 | 0.32 | 0.32 | 94 | 1009.8 |
| 20260503030058 | 48 | 196 | 0.0 | 1.0 | 0.06 | 0.30 | 0.30 | 94 | 1009.7 |
| 20260503024609 | 48 | 196 | 0.0 | 0.0 | 0.06 | 0.28 | 0.28 | 94 | 1010.0 |
| 20260503021608 | 48 | 196 | 0.0 | 2.0 | 0.09 | 0.26 | 0.26 | 93 | 1010.4 |
| 20260503020007 | 48 | 196 | 0.0 | 3.0 | 0.10 | 0.24 | 0.24 | 93 | 1010.6 |
| 20260503014524 | 49 | 196 | 0.0 | 3.0 | 0.09 | 0.21 | 0.21 | 93 | 1010.7 |
| 20260503013046 | 49 | 196 | 0.0 | 1.0 | 0.08 | 0.19 | 0.19 | 93 | 1010.7 |
| 20260503011546 | 49 | 196 | 0.0 | 3.0 | 0.10 | 0.17 | 0.17 | 93 | 1010.7 |
| 20260503010041 | 49 | 196 | 0.0 | 1.0 | 0.10 | 0.14 | 0.14 | 93 | 1010.4 |
| 20260503004517 | 49 | 196 | 0.0 | 3.0 | 0.12 | 0.12 | 0.12 | 92 | 1010.5 |
| 20260503003100 | 49 | 196 | 2.0 | 4.0 | 0.11 | 0.11 | 0.11 | 92 | 1010.5 |
| 20260503001540 | 49 | 124 | 3.0 | 7.0 | 0.07 | 0.07 | 0.07 | 91 | 1010.9 |
| 20260503000030 | 49 | 124 | 1.0 | 7.0 | 0.03 | 0.03 | 0.03 | 91 | 1010.6 |
| 20260502234511 | 50 | 183 | 3.0 | 7.0 | 0.00 | 0.00 | 0.00 | 90 | 1010.6 |
| 20260502233025 | 50 | 124 | 4.0 | 10.0 | 0.00 | 0.00 | 0.00 | 89 | 1010.7 |
| 20260502231505 | 50 | 124 | 3.0 | 7.0 | 0.00 | 0.00 | 0.00 | 88 | 1010.6 |
| 20260502230012 | 50 | 124 | 2.0 | 7.0 | 0.00 | 0.00 | 0.00 | 88 | 1010.7 |
| 20260502224505 | 50 | 124 | 5.0 | 10.0 | 0.00 | 0.00 | 0.00 | 88 | 1010.5 |
| 20260502223009 | 51 | 124 | 4.0 | 10.0 | 0.00 | 0.00 | 0.00 | 87 | 1010.4 |
| 20260502221505 | 51 | 178 | 4.0 | 10.0 | 0.00 | 0.00 | 0.00 | 87 | 1010.4 |
| 20260502220017 | 51 | 124 | 5.0 | 10.0 | 0.00 | 0.00 | 0.00 | 87 | 1010.5 |
| 20260502214524 | 51 | 124 | 5.0 | 10.0 | 0.00 | 0.00 | 0.00 | 86 | 1010.5 |
| 20260502213037 | 51 | 189 | 7.0 | 12.0 | 0.00 | 0.00 | 0.00 | 86 | 1010.6 |
| 20260502211538 | 51 | 124 | 5.0 | 11.0 | 0.00 | 0.00 | 0.00 | 86 | 1010.4 |
| 20260502210046 | 51 | 242 | 6.0 | 12.0 | 0.00 | 0.00 | 0.00 | 86 | 1010.6 |
| 20260502204530 | 51 | 124 | 4.0 | 11.0 | 0.00 | 0.00 | 0.00 | 86 | 1010.7 |
| 20260502203011 | 51 | 124 | 9.0 | 14.0 | 0.00 | 0.00 | 0.00 | 85 | 1010.9 |
| 20260502201533 | 51 | 208 | 6.0 | 12.0 | 0.00 | 0.00 | 0.00 | 84 | 1011.1 |
| 20260502200027 | 52 | 124 | 7.0 | 13.0 | 0.00 | 0.00 | 0.00 | 83 | 1011.3 |
| 20260502194532 | 52 | 124 | 4.0 | 16.0 | 0.00 | 0.00 | 0.00 | 83 | 1011.3 |
| 20260502193033 | 52 | 202 | 6.0 | 11.0 | 0.00 | 0.00 | 0.00 | 83 | 1011.4 |
| 20260502191514 | 52 | 258 | 4.0 | 13.0 | 0.00 | 0.00 | 0.00 | 82 | 1011.7 |
| 20260502190002 | 53 | 213 | 6.0 | 12.0 | 0.00 | 0.00 | 0.00 | 82 | 1011.7 |
| 20260502184558 | 53 | 124 | 6.0 | 12.0 | 0.00 | 0.00 | 0.00 | 82 | 1011.7 |
| 20260502183058 | 53 | 202 | 7.0 | 11.0 | 0.00 | 0.00 | 0.00 | 83 | 1012.0 |
| 20260502181543 | 53 | 258 | 6.0 | 12.0 | 0.00 | 0.00 | 0.00 | 82 | 1012.0 |
| 20260502163017 | 53 | 124 | 5.0 | 11.0 | 0.00 | 0.00 | 0.00 | 81 | 1012.0 |
| 20260502161559 | 54 | 124 | 8.0 | 13.0 | 0.00 | 0.00 | 0.00 | 80 | 1012.0 |
| 20260502151540 | 54 | 124 | 7.0 | 14.0 | 0.00 | 0.00 | 0.00 | 81 | 1012.5 |
| 20260502130104 | 52 | 262 | 9.0 | 14.0 | 0.00 | 0.00 | 0.00 | 83 | 1013.0 |
| 20260502123036 | 51 | 124 | 8.0 | 14.0 | 0.00 | 0.00 | 0.00 | 83 | 1012.9 |
| 20260502121542 | 51 | 124 | 7.0 | 15.0 | 0.00 | 0.00 | 0.00 | 83 | 1012.8 |
| 20260502114519 | 51 | 124 | 8.0 | 14.0 | 0.00 | 0.00 | 0.00 | 83 | 1012.7 |
| 20260502113029 | 51 | 235 | 6.0 | 15.0 | 0.00 | 0.00 | 0.00 | 83 | 1012.5 |
| 20260502111522 | 50 | 124 | 7.0 | 13.0 | 0.00 | 0.00 | 0.00 | 84 | 1012.8 |
| 20260502110020 | 50 | 124 | 7.0 | 14.0 | 0.00 | 0.00 | 0.00 | 84 | 1012.5 |
| 20260502104526 | 50 | 124 | 7.0 | 12.0 | 0.00 | 0.00 | 0.00 | 83 | 1012.4 |
| 20260502103059 | 50 | 124 | 8.0 | 13.0 | 0.00 | 0.00 | 0.00 | 83 | 1012.3 |
| 20260502101628 | 50 | 124 | 7.0 | 12.0 | 0.00 | 0.00 | 0.00 | 84 | 1012.6 |
| 20260502091534 | 49 | 124 | 6.0 | 14.0 | 0.00 | 0.00 | 0.00 | 84 | 1012.2 |
| 20260502090108 | 50 | 124 | 5.0 | 11.0 | 0.00 | 0.00 | 0.00 | 83 | 1011.9 |
| 20260502071522 | 50 | 273 | 5.0 | 11.0 | 0.00 | 0.00 | 0.00 | 79 | 1012.0 |
| 20260502070137 | 50 | 283 | 6.0 | 11.0 | 0.00 | 0.00 | 0.00 | 79 | 1012.1 |
| 20260502064504 | 50 | 277 | 5.0 | 8.0 | 0.00 | 0.00 | 0.00 | 79 | 1011.9 |
| 20260502063016 | 50 | 264 | 6.0 | 11.0 | 0.00 | 0.00 | 0.00 | 79 | 1012.2 |
| 20260502061519 | 50 | 273 | 5.0 | 12.0 | 0.00 | 0.00 | 0.00 | 79 | 1012.1 |
| 20260502060027 | 50 | 260 | 6.0 | 11.0 | 0.00 | 0.00 | 0.00 | 78 | 1012.1 |
| 20260502054544 | 51 | 263 | 5.0 | 13.0 | 0.00 | 0.00 | 0.00 | 77 | 1012.2 |
| 20260502053002 | 51 | 284 | 6.0 | 13.0 | 0.00 | 0.00 | 0.00 | 75 | 1012.3 |
| 20260502051512 | 51 | 292 | 5.0 | 11.0 | 0.00 | 0.00 | 0.00 | 76 | 1012.3 |
| 20260502050112 | 51 | 281 | 3.0 | 8.0 | 0.00 | 0.00 | 0.00 | 75 | 1012.3 |
| 20260502044503 | 51 | 278 | 3.0 | 6.0 | 0.00 | 0.00 | 0.00 | 75 | 1012.3 |
| 20260502043031 | 51 | 301 | 4.0 | 7.0 | 0.00 | 0.00 | 0.00 | 75 | 1012.3 |
| 20260502041541 | 51 | 277 | 4.0 | 10.0 | 0.00 | 0.00 | 0.00 | 75 | 1012.4 |
| 20260502040159 | 51 | 124 | 4.0 | 10.0 | 0.00 | 0.00 | 0.00 | 74 | 1012.3 |